Location: Risskov
(56.1972°N, 10.2480°E)
Time: 12:55:25
(UTC+00:00)

Cosmos 1408 - Pass Details

Date: 05 July 2020
Orbit: 470 x 493 km, 82.6° (Epoch: 07 August)

Event Time Altitude Azimuth Distance (km) Brightness Sun altitude
Exits shadow 23:03:14 - 221° (SW) 1,775 5.0 -11.0°
Reaches altitude 10° 23:03:36 10° 223° (SW) 1,640 4.8 -11.0°
Maximum altitude 23:06:54 34° 290° (WNW) 798 3.9 -11.1°
Drops below altitude 10° 23:10:13 10° 358° (N) 1,650 6.9 -11.1°
Sets 23:12:27 0° 7° (N) 2,533 8.2 -11.1°
